loading
|
Showing default

ERS 9, 635

Orbit data source: Space-Track

ERS 9, 635 is a payload satellite owned by USAF SSD (US) that was launched on Fri, 19 Jul 1963 UTC via an ATLAS AGENA B launch vehicle from the Air Force Western Test Range (AFWTR). Payloads include a variety of satellites, spacecraft, and rockets equipped with specific instruments for various scientific and technological missions. These include communications satellites like Starlink; space stations such as the ISS; scientific satellites like the Hubble; Earth observation satellites from companies like Planet Labs, Umbra, and HawkEye 360; GPS; miniature CubeSats for education and research; and military/defense satellites.

Loading next visibility...
Loading greatness...
ERS 9 details
Identifier
635, 1963-030B
Orbit
Active
Last TLE update3 days ago
Origin
Flag of USUSAF SSD (US)
ManufacturerTRW
Mission statusUnknown
MissionDefense Technology
Bus & MotorTRS, Unknown motor
Mass1 kg wet, 1 kg dry
Launch date (UTC)
1963-07-19 (61 years ago)
Launch vehicle
ATLAS AGENA B
Launch site
Air Force Western Test Range (AFWTR)
Object type
Payload
Rocket body
Debris
Radar Cross SectionSmall (<0.1 m²)

Expand to show TLE details & history

TLE from 3 days ago
0 ERS 9
1 00635U 63030B   24249.25208774 -.00000013  00000-0 -76001-2 0  9994
2 00635  88.3857 251.0940 0049965 322.7686  36.9705  8.57944243914700
Epoch: 2024-09-05T06:03Z
Definitive object data (Epoch: 2024-09-05T06:03:00.38Z)
Latitude-0.00004°
Longitude175.50077°
Altitude3,663.166 km
Speed6.314 km/s
True Right ascension16h 44m 22s
True Declination0° 00' 00"
Sunlit
Object was in daylight at TLE epoch
Predictive object data (real-time)
Latitude-25.18256°
Longitude-3.88513°
Altitude3,731.213 km
Speed6.273 km/s
Apparent Right ascension02h 51m 21s
Apparent Declination-39° 31' 13"
Sunlit
Object is in daylight
Predictive observer data (real-time)
Local Sidereal Time10:33:38
Azimuth248.478° W
Elevation-41.584°
Doppler factor1
Orbital elements
Apogee3,749.311 km
Perigee3,648.611 km
Semi-major axis10,077.098 km
Eccentricity0.0049965
Inclination88.3857°
RAAN251.094°
Arg. of periapsis322.7686°
True anomaly37.31656°
Mean anomaly36.9705°
Eccentric anomaly37.14336°
Mean motion2.14556 °/min
BSTAR-0.0076001
Period167.79 mins
No data available

ERS 9 Visibility forecast

Observer location: 39.9160978°, -105.1181434

ERS 9 is not visible in the next 10 days
Span
Click to sort rows by Start time (UTC) header in descending order
Start Az.
Max El. time (UTC)
Max El. Az.
Max El.
End time (UTC)
End Az.